Regional Weather Roundup
Issued by NWS Sterling, VA

Home | Current Version | Previous Version | Text Only | Print | Product List | Glossary Off
Versions: 1 2 3 4 5 6 7 8 9 10 11 12 13 14 15 16 17 18 19 20 21 22 23 24 25 26 27 28

000
ASUS41 KLWX 231510
RWRLWX

REGIONAL WEATHER ROUNDUP
NATIONAL WEATHER SERVICE BALTIMORE MD/WASHINGTON DC
1100 AM EDT THU OCT 23 2014

Note: "FAIR" indicates few or no clouds below 12,000 feet
with no significant weather and/or obstructions to visibility.
 TC=TEMPERATURE CELSIUS

 * =Non NWS site. Station does not report precipitation (e.g. rain,
    snow, etc.), thunder, or fog.

DCZ001-MDZ009-015-VAZ040>042-051-053>054-231600-
WASHINGTON METRO

CITY           SKY/WX    TMP DP  RH WIND       PRES   REMARKS
WASHINGTON NAT PTSUNNY   60  43  53 NW16G26   29.91R
DULLES         MOSUNNY   57  43  59 NW24G33   29.91F
ANDREWS AFB    MOSUNNY   58  45  62 NW15G25   29.88S
FT BELVOIR     PTSUNNY   58  43  58 NW23G30   29.90F
QUANTICO       MOSUNNY   60  43  53 N26G38    29.91F
COLLEGE PARK*  CLOUDY    59  45  58 NW10G16   29.89S
LEESBURG*      MOSUNNY   59  46  63 NW24G36   29.93S
MANASSAS*      SUNNY     59  45  58 NW23G35   29.92F
GAITHERSBURG*  MOSUNNY   57  43  58 NW14G25   29.92S

$$

MDZ006>007-011-014-231600-
BALTIMORE METRO

CITY           SKY/WX    TMP DP  RH WIND       PRES   REMARKS
BWI AIRPORT    PTSUNNY   57  43  59 NW14G28   29.86S
MD SCIENCE CTR   N/A     58  43  57 MISG      29.86F
MARTIN STATE   PTSUNNY   57  46  67 NW20G31   29.86S
ANNAPOLIS      CLOUDY    58  45  62 NW23      29.86S
FORT MEADE*    CLOUDY    57  45  62 NW17G26   29.90S

$$

MDZ012-015-019>023-231600-
MARYLAND EASTERN SHORE

CITY           SKY/WX    TMP DP  RH WIND       PRES   REMARKS
OCEAN CITY     CLOUDY    54  47  77 NW16G25   29.79S
SALISBURY      CLOUDY    56  46  69 NW15G26   29.82S
BAY BRIDGE AP*   N/A     55  43  62 NW16G28   29.85S
CAMBRIDGE*     CLOUDY    55  45  67 NW15G22   29.84S VSB<1/4
EASTON*        CLOUDY    57  48  72 NW10G18   29.87S

$$

MDZ017>025-231600-
SOUTHERN MARYLAND

CITY           SKY/WX    TMP DP  RH WIND       PRES   REMARKS
PATUXENT RIVER PTSUNNY   57  44  62 NW22G30   29.86F
ST INIGOES     PTSUNNY   58  42  55 NW12G26   29.86F
LEONARDTOWN*   CLOUDY    55  43  62 NW12G21   29.88F

$$

MDZ003>005-231600-
NORTH CENTRAL MARYLAND

CITY           SKY/WX    TMP DP  RH WIND       PRES   REMARKS
FREDERICK*     MOSUNNY   63  43  48 NW15      29.94S
HAGERSTOWN APT MOSUNNY   56  42  59 NW21G31   29.94F
WESTMINSTER*   CLOUDY    55  45  67 NW12G22   29.89S

$$

MDZ501>502-231600-
WESTERN MARYLAND

CITY           SKY/WX    TMP DP  RH WIND       PRES   REMARKS
OAKLAND*       CLOUDY    37 N/A N/A NW7       30.08S
CUMBERLAND*    MOSUNNY   55  41  58 NW16G24   30.07S

$$

VAZ025>031-231600-
SHENANDOAH VALLEY

CITY           SKY/WX    TMP DP  RH WIND       PRES   REMARKS
WINCHESTER*    MOSUNNY   55  37  50 NW17G31   29.97S
FRONT ROYAL*   CLOUDY    57  43  58 NW12G21   29.98F
LURAY*         FAIR      57  45  62 NW12G17   29.99F
NEW MARKET*    FAIR      56  42  61 N10       30.02F
STAUNTON*      SUNNY     56  40  55 NW18G25   30.04S
WAYNESBORO*    FAIR      55  40  57 NW16G24   30.01S

$$

WVZ021-048>050-054>055-231600-
EASTERN WEST VIRGINIA PANHANDLE

CITY           SKY/WX    TMP DP  RH WIND       PRES   REMARKS
MARTINSBURG    SUNNY     58  40  51 NW18G28   29.96F
PETERSBURG*    SUNNY     56  39  53 NW12      30.06F

$$

VAZ036>039-050-231600-
CENTRAL FOOTHILLS

CITY           SKY/WX    TMP DP  RH WIND       PRES   REMARKS
CHARLOTTESVILL SUNNY     60  42  51 NW13G20   29.96S
CULPEPER*      SUNNY     61  45  55 NW15G25   29.95R
ORANGE*        SUNNY     61  45  55 NW7       29.96S
GORDONSVILLE*  FAIR      59  43  55 N6        29.94F
WARRENTON*     FAIR      62  50  66 NW15G25   29.92F

$$

VAZ055>057-231600-
NORTH AND CENTRAL PIEDMONT

CITY           SKY/WX    TMP DP  RH WIND       PRES   REMARKS
FREDERICKSBRG* SUNNY     61  45  54 NW16G28   29.91F
STAFFORD*      MOSUNNY   59  43  54 NW17G35   29.95F

$$

NCZ024-NYZ072-PAZ021-071-VAZ022-071-231600-
OTHER REGIONAL OBSERVATIONS

CITY           SKY/WX    TMP DP  RH WIND       PRES   REMARKS
NEW YORK CITY  LGT RAIN  51  47  86 N10G17    29.75R FOG
PHILADELPHIA   LGT RAIN  52  47  83 NW23      29.79R
PITTSBURGH     MOSUNNY   53  42  66 NW12G22   30.14S
ROANOKE        MOSUNNY   56  38  50 NW8G18    30.09S
RICHMOND       MOSUNNY   60  43  53 NW17G26   29.92F
RALEIGH        SUNNY     58  41  53 VRB6      30.02S

$$

ANZ530>537-231600-
MARINE OBSERVATIONS

STATION/POSITION TIME  TEMP    WIND        PRES
                       AIR SEA DIR/SP/G
                 (UTC) (F)     (DEG/KT/KT) (MB)
THOMAS PT LIGHT  1500   57 62  330/ 17/ 21 1011.9R
BALT KEY BRIDGE  1500   58     310/ 20/ 27 1010.5S
COVE POINT       1500   56     330/ 20/ 25 1010.9S
LEWISETTA        1500   57 60  320/ 18/ 24 1011.3F
SOLOMONS ISLAND  1500      64                N/A
PINEY POINT      1500          330/ 28/ 31   N/A

$$




USA.gov is the U.S. government's official web portal to all federal, state and local government web resources and services.